Location: Eimen
(51.8766°N, 9.7806°E)
Time: 18:04:11
(UTC+00:00)

Resurs 1-4 Rocket - Pass Details

Date: 23 May 2024
Orbit: 798 x 813 km, 98.7° (Epoch: 23 June)

Event Time Altitude Azimuth Distance (km) Brightness Sun altitude
Rises 02:04:19 0° 12° (NNE) 3,321 6.6 -8.9°
Reaches altitude 10° 02:06:41 10° 8° (N) 2,386 5.6 -8.6°
Maximum altitude 02:11:49 55° 292° (WNW) 961 2.4 -8.1°
Drops below altitude 10° 02:16:54 10° 216° (SW) 2,370 3.9 -7.6°
Enters shadow 02:17:06 - 216° (SW) 2,443 3.9 -7.6°
